Weather History for KFBL - March, 2012

Change the Weather History Date:

Thursday, March 22, 2012

  Actual Average Record
Temperature  
Mean Temperature 60 °F -  
Max Temperature 66 °F 41 °F 66 °F (2012)
Min Temperature 55 °F 22 °F -7 °F (1965)
Degree Days  
Heating Degree Days 4    
Growing Degree Days 10 (Base 50)    
Moisture  
Dew Point 56 °F    
Average Humidity 87    
Maximum Humidity 94    
Minimum Humidity 68    
Precipitation  
Precipitation 0.58 in - - ()
Sea Level Pressure  
Sea Level Pressure 30.02 in    
Wind  
Wind Speed 5 mph (NE)    
Max Wind Speed 10 mph    
Max Gust Speed -    
Visibility 7 miles    
Events Rain    
Averages and records for this station are not official NWS values.
T = Trace of Precipitation, MM = Missing Value Source: NWS Daily Summary

Daily Weather History Graph

Daily Weather History Graph

Search for Another Location

Airport or City:

Trip Planner

Search our weather history database for the weather conditions in past years. The results will help you decide how hot, cold, wet, or windy it might be!

Date:

Astronomy

Mar. 22, 2012 Rise Set
Actual Time 7:11 AM CDT 7:28 PM CDT
Civil Twilight 6:42 AM CDT 7:57 PM CDT
Nautical Twilight 6:08 AM CDT 8:32 PM CDT
Astronomical Twilight 5:33 AM CDT 9:07 PM CDT
Moon 6:49 AM CDT (3/22) 7:57 PM CDT (3/22)
Length of Visible Light 13h 15m
Length of Day
12h 17m
New Moon, 0% of the Moon is Illuminated
Mar 22
New Moon
Mar 30
First Quarter
Apr 6
Full
Apr 13
Last Quarter
Apr 21
New

Hourly Weather History & Observations

Time (CDT) Temp. Dew Point Humidity Pressure Visibility Wind Dir Wind Speed Gust Speed Precip Events Conditions
12:14 AM 57.2 °F 53.6 °F 88% 30.04 in 5.0 mi North 4.6 mph - N/A   Mostly Cloudy
12:34 AM 57.2 °F 53.6 °F 88% 30.05 in 5.0 mi NNE 4.6 mph - N/A   Scattered Clouds
12:54 AM 57.2 °F 53.6 °F 88% 30.05 in 5.0 mi North 4.6 mph - N/A   Scattered Clouds
1:14 AM 57.2 °F 53.6 °F 88% 30.05 in 5.0 mi NNE 4.6 mph - N/A   Mostly Cloudy
1:54 AM 57.2 °F 53.6 °F 88% 30.05 in 5.0 mi NNE 3.5 mph - N/A   Overcast
2:14 AM 57.2 °F 53.6 °F 88% 30.05 in 5.0 mi Calm Calm - N/A   Overcast
2:34 AM 55.4 °F 53.6 °F 94% 30.05 in 4.0 mi Calm Calm - N/A   Overcast
2:54 AM 55.4 °F 53.6 °F 94% 30.05 in 7.0 mi Calm Calm - N/A   Overcast
3:13 AM 57.2 °F 53.6 °F 88% 30.05 in 7.0 mi North 4.6 mph - N/A Rain Light Rain
3:34 AM 57.2 °F 53.6 °F 88% 30.05 in 7.0 mi Calm Calm - N/A Rain Light Rain
3:54 AM 55.4 °F 53.6 °F 94% 30.04 in 7.0 mi NNE 3.5 mph - N/A   Overcast
4:14 AM 57.2 °F 53.6 °F 88% 30.04 in 7.0 mi NNE 3.5 mph - N/A   Overcast
4:34 AM 57.2 °F 53.6 °F 88% 30.06 in 3.0 mi Calm Calm - 0.06 in Rain Heavy Rain
4:54 AM 55.4 °F 53.6 °F 94% 30.06 in 5.0 mi NNE 3.5 mph - 0.07 in Rain Light Rain
5:13 AM 57.2 °F 53.6 °F 88% 30.05 in 5.0 mi NNE 4.6 mph - N/A Rain Rain
5:34 AM 57.2 °F 53.6 °F 88% 30.05 in 5.0 mi NE 3.5 mph - 0.01 in Rain Light Rain
5:53 AM 55.4 °F 53.6 °F 94% 30.05 in 5.0 mi NE 3.5 mph - 0.02 in   Drizzle
6:14 AM 55.4 °F 53.6 °F 94% 30.05 in 4.0 mi NNE 3.5 mph - 0.01 in Rain Light Rain
6:34 AM 55.4 °F 53.6 °F 94% 30.04 in 5.0 mi NE 3.5 mph - 0.01 in   Light Drizzle
6:54 AM 55.4 °F 53.6 °F 94% 30.04 in 5.0 mi ENE 3.5 mph - 0.02 in   Overcast
7:14 AM 57.2 °F 53.6 °F 88% 30.05 in 7.0 mi ENE 3.5 mph - N/A   Overcast
7:34 AM 57.2 °F 53.6 °F 88% 30.05 in 10.0 mi ENE 3.5 mph - N/A   Overcast
8:13 AM 57.2 °F 55.4 °F 94% 30.05 in 7.0 mi East 8.1 mph - N/A Rain Light Rain
8:34 AM 57.2 °F 55.4 °F 94% 30.05 in 7.0 mi East 4.6 mph - 0.03 in Rain Rain
8:53 AM 57.2 °F 55.4 °F 94% 30.04 in 10.0 mi NNE 4.6 mph - 0.06 in Rain Light Rain
9:12 AM 57.2 °F 55.4 °F 94% 30.04 in 10.0 mi NNE 8.1 mph - 0.01 in   Overcast
9:34 AM 59.0 °F 57.2 °F 94% 30.04 in 7.0 mi NE 8.1 mph - N/A   Unknown
9:54 AM 59.0 °F 57.2 °F 94% 30.04 in 10.0 mi NNE 8.1 mph - N/A   Unknown
10:14 AM 60.8 °F 57.2 °F 88% 30.04 in 10.0 mi NNE 8.1 mph - N/A   Mostly Cloudy
10:34 AM 60.8 °F 57.2 °F 88% 30.03 in 7.0 mi NNE 9.2 mph - N/A   Mostly Cloudy
10:54 AM 60.8 °F 57.2 °F 88% 30.03 in 7.0 mi NNE 9.2 mph - N/A   Scattered Clouds
11:14 AM 60.8 °F 57.2 °F 88% 30.03 in 7.0 mi NNE 8.1 mph - N/A   Mostly Cloudy
11:34 AM 60.8 °F 57.2 °F 88% 30.02 in 7.0 mi NNE 8.1 mph - N/A   Scattered Clouds
11:54 AM 60.8 °F 57.2 °F 88% 30.02 in 7.0 mi NNE 9.2 mph - N/A   Mostly Cloudy
12:14 PM 62.6 °F 59.0 °F 88% 30.02 in 10.0 mi ENE 6.9 mph - N/A   Mostly Cloudy
12:34 PM 62.6 °F 57.2 °F 82% 30.03 in 10.0 mi ENE 6.9 mph - N/A   Overcast
12:54 PM 62.6 °F 57.2 °F 82% 30.02 in 10.0 mi East 6.9 mph - N/A   Overcast
1:14 PM 64.4 °F 57.2 °F 77% 30.01 in 10.0 mi ENE 5.8 mph - N/A   Mostly Cloudy
1:34 PM 64.4 °F 57.2 °F 77% 30.00 in 10.0 mi ENE 6.9 mph - N/A   Scattered Clouds
1:53 PM 66.2 °F 57.2 °F 73% 29.99 in 10.0 mi ENE 10.4 mph - N/A   Scattered Clouds
2:14 PM 66.2 °F 55.4 °F 68% 29.98 in 10.0 mi ENE 9.2 mph - N/A   Scattered Clouds
2:34 PM 66.2 °F 55.4 °F 68% 29.98 in 10.0 mi ENE 10.4 mph - N/A   Overcast
2:54 PM 66.2 °F 57.2 °F 73% 29.97 in 10.0 mi ENE 9.2 mph - N/A   Overcast
3:14 PM 66.2 °F 57.2 °F 73% 29.96 in 10.0 mi NE 8.1 mph - N/A   Overcast
3:34 PM 64.4 °F 57.2 °F 77% 29.95 in 7.0 mi NE 4.6 mph - N/A Rain Rain
3:54 PM 66.2 °F 57.2 °F 73% 29.94 in 10.0 mi NNE 5.8 mph - N/A Rain Light Rain
4:14 PM 64.4 °F 59.0 °F 83% 29.94 in 7.0 mi ENE 4.6 mph - 0.01 in Rain Light Rain
4:34 PM 64.4 °F 57.2 °F 77% 29.95 in 10.0 mi ENE 6.9 mph - 0.01 in   Light Drizzle
4:54 PM 64.4 °F 59.0 °F 83% 29.94 in 10.0 mi ENE 5.8 mph - 0.01 in Rain Light Rain
5:14 PM 62.6 °F 60.8 °F 94% 29.95 in 1.5 mi SE 8.1 mph - 0.36 in Rain Heavy Rain
5:34 PM 62.6 °F 60.8 °F 94% 29.96 in 7.0 mi SSE 8.1 mph - 0.39 in   Overcast
5:54 PM 62.6 °F 60.8 °F 94% 29.96 in 5.0 mi SSE 4.6 mph - 0.39 in   Overcast
6:14 PM 62.6 °F 60.8 °F 94% 29.97 in 5.0 mi SE 4.6 mph - N/A   Overcast
6:34 PM 62.6 °F 60.8 °F 94% 29.97 in 7.0 mi ESE 3.5 mph - N/A   Overcast
6:54 PM 62.6 °F 59.0 °F 88% 29.97 in 7.0 mi East 3.5 mph - N/A   Overcast
7:14 PM 62.6 °F 59.0 °F 88% 29.97 in 7.0 mi ESE 4.6 mph - N/A   Overcast
7:34 PM 62.6 °F 59.0 °F 88% 29.97 in 10.0 mi ESE 5.8 mph - N/A   Overcast
7:54 PM 62.6 °F 59.0 °F 88% 29.97 in 5.0 mi SE 6.9 mph - 0.01 in Rain Light Rain
8:14 PM 60.8 °F 57.2 °F 88% 29.98 in 10.0 mi SSE 6.9 mph - N/A Rain Light Rain
8:34 PM 60.8 °F 57.2 °F 88% 29.98 in 10.0 mi SE 9.2 mph - N/A   Overcast
8:54 PM 60.8 °F 57.2 °F 88% 29.99 in 10.0 mi SE 8.1 mph - N/A   Overcast
9:14 PM 60.8 °F 57.2 °F 88% 29.99 in 10.0 mi SE 5.8 mph - N/A   Overcast
9:34 PM 60.8 °F 57.2 °F 88% 29.99 in 10.0 mi SE 4.6 mph - N/A Rain Light Rain
9:54 PM 60.8 °F 57.2 °F 88% 29.99 in 10.0 mi SE 3.5 mph - N/A   Overcast
10:14 PM 60.8 °F 57.2 °F 88% 29.98 in 10.0 mi SE 3.5 mph - N/A   Overcast
10:34 PM 60.8 °F 57.2 °F 88% 29.98 in 10.0 mi SE 4.6 mph - N/A   Mostly Cloudy
10:54 PM 59.0 °F 57.2 °F 94% 29.98 in 10.0 mi Calm Calm - N/A   Overcast
11:14 PM 59.0 °F 57.2 °F 94% 29.98 in 10.0 mi East 3.5 mph - 0.01 in   Mostly Cloudy
11:34 PM 60.8 °F 55.4 °F 82% 29.98 in 10.0 mi ESE 4.6 mph - 0.01 in   Mostly Cloudy
11:54 PM 60.8 °F 55.4 °F 82% 29.98 in 10.0 mi ENE 4.6 mph - 0.01 in   Mostly Cloudy